Howell, MI

1:38 AM EST on February 23, 2017 (GMT -0500)
Livingston County

Weather History for KOZW - March, 2012

Change the Weather History Date:

Thursday, March 29, 2012

  Actual Average Record
Temperature  
Mean Temperature 39 °F -  
Max Temperature 41 °F 49 °F 73 °F (1998)
Min Temperature 37 °F 32 °F 19 °F (2011)
Degree Days  
Heating Degree Days 26    
Moisture  
Dew Point 28 °F    
Average Humidity 66    
Maximum Humidity 70    
Minimum Humidity 62    
Precipitation  
Precipitation 0.00 in - - ()
Sea Level Pressure  
Sea Level Pressure 30.07 in    
Wind  
Wind Speed 7 mph (North)    
Max Wind Speed 12 mph    
Max Gust Speed 17 mph    
Visibility 10 miles    
Events      
Averages and records for this station are not official NWS values.
T = Trace of Precipitation, MM = Missing Value Source: NWS Daily Summary

Daily Weather History Graph

Daily Weather History Graph

Search for Another Location

Airport or City:

Trip Planner

Search our weather history database for the weather conditions in past years. The results will help you decide how hot, cold, wet, or windy it might be!

Date:

Astronomy

Mar. 29, 2012 Rise Set
Actual Time 7:22 AM EDT 7:59 PM EDT
Civil Twilight 6:54 AM EDT 8:27 PM EDT
Nautical Twilight 6:20 AM EDT 9:01 PM EDT
Astronomical Twilight 5:46 AM EDT 9:35 PM EDT
Moon 11:23 AM EDT (3/29) 1:56 AM EDT (3/29)
Length of Visible Light 13h 33m
Length of Day
12h 36m
Waxing Crescent, 39% of the Moon is Illuminated
Mar 29
Waxing Crescent
Mar 30
First Quarter
Apr 6
Full
Apr 13
Last Quarter
Apr 21
New

Hourly Weather History & Observations

Time (EDT) Temp. Windchill Dew Point Humidity Pressure Visibility Wind Dir Wind Speed Gust Speed Precip Events Conditions
12:14 AM 41.4 °F 35.7 °F 29.8 °F 64% 29.99 in 10.0 mi NNW 9.2 mph 16.1 mph N/A   Clear
12:35 AM 40.5 °F 35.8 °F 29.8 °F 66% 29.99 in 10.0 mi NNW 6.9 mph 16.1 mph N/A   Clear
12:54 AM 41.0 °F 35.8 °F 30.2 °F 65% 30.00 in 10.0 mi NNW 8.1 mph - N/A   Mostly Cloudy
1:14 AM 40.6 °F 34.3 °F 30.2 °F 66% 30.00 in 10.0 mi North 10.4 mph - N/A   Overcast
1:35 AM 39.9 °F 35.1 °F 28.8 °F 64% 30.01 in 10.0 mi NNW 6.9 mph 16.1 mph N/A   Overcast
1:54 AM 38.8 °F 32.1 °F 28.4 °F 66% 30.02 in 10.0 mi NNW 10.4 mph - N/A   Mostly Cloudy
2:14 AM 38.3 °F 31.9 °F 28.0 °F 67% 30.02 in 10.0 mi NNW 9.2 mph 17.3 mph N/A   Mostly Cloudy
2:25 AM 37.4 °F 29.8 °F 28.4 °F 70% 30.02 in 10.0 mi NNW 11.5 mph 17.3 mph N/A   Overcast
2:54 AM 38.3 °F 32.5 °F 28.0 °F 67% 30.01 in 10.0 mi NNW 8.1 mph - N/A   Overcast
3:15 AM 38.3 °F 32.5 °F 27.9 °F 66% 30.00 in 10.0 mi NNW 8.1 mph - N/A   Overcast
3:34 AM 38.3 °F 33.2 °F 28.0 °F 67% 30.00 in 10.0 mi NNW 6.9 mph - N/A   Overcast
3:54 AM 38.3 °F 34.8 °F 28.0 °F 67% 30.00 in 10.0 mi NNW 4.6 mph - N/A   Overcast
4:14 AM 38.3 °F 34.8 °F 28.4 °F 68% 30.01 in 10.0 mi NNW 4.6 mph - N/A   Overcast
4:34 AM 38.3 °F 33.9 °F 28.2 °F 67% 30.00 in 10.0 mi NNW 5.8 mph - N/A   Overcast
4:55 AM 38.3 °F 34.8 °F 28.2 °F 67% 30.01 in 10.0 mi NNW 4.6 mph - N/A   Overcast
5:14 AM 38.3 °F 34.8 °F 28.4 °F 68% 30.02 in 10.0 mi NNW 4.6 mph - N/A   Overcast
5:35 AM 38.3 °F 33.9 °F 28.4 °F 68% 30.03 in 10.0 mi NNW 5.8 mph - N/A   Overcast
5:55 AM 38.3 °F 33.2 °F 27.9 °F 66% 30.03 in 10.0 mi North 6.9 mph - N/A   Overcast
6:14 AM 38.1 °F 34.6 °F 27.9 °F 67% 30.04 in 10.0 mi North 4.6 mph - N/A   Overcast
6:35 AM 38.1 °F 32.9 °F 27.7 °F 66% 30.05 in 10.0 mi NNW 6.9 mph - N/A   Overcast
6:54 AM 38.3 °F 32.5 °F 28.0 °F 67% 30.05 in 10.0 mi NNW 8.1 mph - N/A   Overcast
7:14 AM 37.8 °F 33.3 °F 28.4 °F 69% 30.06 in 10.0 mi NNW 5.8 mph - N/A   Overcast
7:35 AM 37.4 °F 32.8 °F 28.4 °F 70% 30.07 in 10.0 mi North 5.8 mph - N/A   Overcast
7:54 AM 37.2 °F 31.9 °F 27.5 °F 68% 30.08 in 10.0 mi North 6.9 mph - N/A   Overcast
8:14 AM 37.0 °F 31.6 °F 27.3 °F 68% 30.09 in 10.0 mi NNW 6.9 mph - N/A   Overcast
8:35 AM 37.2 °F 32.6 °F 27.7 °F 68% 30.09 in 10.0 mi North 5.8 mph - N/A   Overcast
8:54 AM 37.4 °F 32.1 °F 28.2 °F 69% 30.10 in 10.0 mi NNW 6.9 mph - N/A   Overcast
9:14 AM 37.4 °F 32.8 °F 27.9 °F 68% 30.10 in 10.0 mi North 5.8 mph - N/A   Overcast
9:35 AM 37.4 °F 32.8 °F 27.9 °F 68% 30.11 in 10.0 mi North 5.8 mph - N/A   Overcast
9:54 AM 37.4 °F 33.8 °F 27.9 °F 68% 30.12 in 10.0 mi NNE 4.6 mph - N/A   Overcast
10:15 AM 37.6 °F 33.1 °F 28.0 °F 68% 30.13 in 10.0 mi NNW 5.8 mph - N/A   Overcast
10:34 AM 37.8 °F 33.3 °F 27.9 °F 67% 30.12 in 10.0 mi North 5.8 mph - N/A   Overcast
10:54 AM 38.3 °F 33.9 °F 28.2 °F 67% 30.12 in 10.0 mi NNE 5.8 mph - N/A   Overcast
11:15 AM 37.9 °F 34.4 °F 28.0 °F 68% 30.13 in 10.0 mi NNE 4.6 mph - N/A   Overcast
11:34 AM 38.3 °F 33.9 °F 27.7 °F 66% 30.14 in 10.0 mi North 5.8 mph - N/A   Overcast
11:54 AM 38.3 °F 33.2 °F 27.5 °F 65% 30.14 in 10.0 mi NNW 6.9 mph - N/A   Overcast
12:15 PM 39.0 °F 34.8 °F 28.4 °F 66% 30.15 in 10.0 mi North 5.8 mph - N/A   Overcast
12:34 PM 39.2 °F 34.2 °F 28.0 °F 64% 30.15 in 10.0 mi NE 6.9 mph - N/A   Overcast
12:54 PM 39.4 °F 36.1 °F 27.9 °F 63% 30.15 in 10.0 mi NNE 4.6 mph - N/A   Overcast
1:15 PM 39.9 °F 35.8 °F 28.4 °F 63% 30.15 in 10.0 mi NNW 5.8 mph - N/A   Overcast
1:34 PM 39.9 °F 35.8 °F 28.0 °F 63% 30.15 in 10.0 mi North 5.8 mph - N/A   Overcast
1:55 PM 40.1 °F 35.3 °F 28.4 °F 63% 30.13 in 10.0 mi North 6.9 mph - N/A   Overcast
2:14 PM 40.1 °F 38.0 °F 28.4 °F 63% 30.13 in 10.0 mi North 3.5 mph - N/A   Overcast
2:34 PM 40.1 °F 35.3 °F 28.8 °F 64% 30.13 in 10.0 mi NNW 6.9 mph - N/A   Overcast
2:55 PM 40.1 °F 36.1 °F 28.9 °F 64% 30.12 in 10.0 mi North 5.8 mph - N/A   Overcast
3:15 PM 40.1 °F 36.1 °F 29.1 °F 65% 30.12 in 10.0 mi ENE 5.8 mph - N/A   Overcast
3:34 PM 40.3 °F 36.3 °F 29.3 °F 65% 30.11 in 10.0 mi ENE 5.8 mph - N/A   Overcast
3:55 PM 40.5 °F 38.4 °F 29.1 °F 64% 30.11 in 10.0 mi East 3.5 mph - N/A   Overcast
4:14 PM 41.0 °F - 28.9 °F 62% 30.10 in 10.0 mi Calm Calm - N/A   Overcast
4:34 PM 40.8 °F 37.8 °F 28.9 °F 63% 30.10 in 10.0 mi NNE 4.6 mph - N/A   Overcast
4:55 PM 40.8 °F 36.9 °F 28.6 °F 62% 30.10 in 10.0 mi North 5.8 mph - N/A   Overcast
5:14 PM 41.0 °F 37.1 °F 29.7 °F 64% 30.10 in 10.0 mi NNE 5.8 mph - N/A   Overcast
5:34 PM 40.5 °F 37.3 °F 29.1 °F 64% 30.10 in 10.0 mi NE 4.6 mph - N/A   Overcast
5:55 PM 40.1 °F 36.9 °F 29.1 °F 65% 30.10 in 10.0 mi North 4.6 mph - N/A   Overcast
6:14 PM 40.1 °F 36.9 °F 29.1 °F 65% 30.10 in 10.0 mi ENE 4.6 mph - N/A   Overcast
6:35 PM 40.1 °F 36.9 °F 29.1 °F 65% 30.10 in 10.0 mi ENE 4.6 mph - N/A   Overcast
6:54 PM 40.1 °F 36.1 °F 28.6 °F 63% 30.09 in 10.0 mi NE 5.8 mph - N/A   Overcast
7:14 PM 40.1 °F 36.1 °F 29.1 °F 65% 30.10 in 10.0 mi NE 5.8 mph - N/A   Overcast
7:35 PM 39.7 °F 36.5 °F 28.2 °F 63% 30.10 in 10.0 mi ENE 4.6 mph - N/A   Overcast
7:54 PM 39.6 °F 36.3 °F 28.2 °F 64% 30.11 in 10.0 mi ENE 4.6 mph - N/A   Overcast
8:14 PM 39.4 °F 37.2 °F 28.4 °F 65% 30.11 in 10.0 mi NE 3.5 mph - N/A   Overcast
8:35 PM 38.3 °F 35.9 °F 28.4 °F 68% 30.11 in 10.0 mi NNE 3.5 mph - N/A   Scattered Clouds
8:54 PM 37.2 °F 34.7 °F 28.4 °F 70% 30.12 in 10.0 mi NE 3.5 mph - N/A   Clear
9:14 PM 36.9 °F - 28.2 °F 71% 30.13 in 10.0 mi Calm Calm - N/A   Clear
9:35 PM 36.5 °F - 28.0 °F 71% 30.13 in 10.0 mi Calm Calm - N/A   Mostly Cloudy
9:54 PM 36.5 °F 32.7 °F 28.2 °F 72% 30.13 in 10.0 mi NE 4.6 mph - N/A   Overcast
10:14 PM 35.2 °F 30.3 °F 27.7 °F 74% 30.14 in 10.0 mi ENE 5.8 mph - N/A   Scattered Clouds
10:34 PM 35.1 °F 30.1 °F 27.9 °F 75% 30.13 in 10.0 mi ENE 5.8 mph - N/A   Clear
10:54 PM 34.2 °F 30.0 °F 27.5 °F 77% 30.13 in 10.0 mi ENE 4.6 mph - N/A   Clear
11:15 PM 33.8 °F 29.6 °F 27.5 °F 78% 30.12 in 10.0 mi ENE 4.6 mph - N/A   Clear
11:34 PM 33.1 °F 28.7 °F 27.3 °F 79% 30.11 in 10.0 mi East 4.6 mph - N/A   Clear
11:54 PM 32.9 °F 29.8 °F 27.3 °F 80% 30.10 in 10.0 mi East 3.5 mph - N/A   Clear